Oslo, Norway

9:55 AM CET on January 18, 2017 (GMT +0100)
Oslo

Weather History for 01384 - November, 2013

Change the Weather History Date:

Tuesday, November 26, 2013

  Actual Average Record
Temperature  
Mean Temperature 24 °F -  
Max Temperature 33 °F 30 °F - ()
Min Temperature 15 °F 20 °F - ()
Degree Days  
Heating Degree Days 41    
Moisture  
Dew Point 20 °F    
Average Humidity 89    
Maximum Humidity 93    
Minimum Humidity 78    
Precipitation  
Precipitation 0.00 in 0.09 in - ()
Sea Level Pressure  
Sea Level Pressure 30.20 in    
Wind  
Wind Speed 3 mph ()    
Max Wind Speed 15 mph    
Max Gust Speed -    
Visibility 9.1 miles    
Events Rain    
T = Trace of Precipitation, MM = Missing Value Source: Averaged Metar Reports

Daily Weather History Graph

Daily Weather History Graph

Search for Another Location

Airport or City:

Trip Planner

Search our weather history database for the weather conditions in past years. The results will help you decide how hot, cold, wet, or windy it might be!

Date:

Astronomy

Nov. 26, 2013 Rise Set
Actual Time 8:41 AM CET 3:23 PM CET
Civil Twilight 7:48 AM CET 4:16 PM CET
Nautical Twilight 6:54 AM CET 5:11 PM CET
Astronomical Twilight 6:03 AM CET 6:01 PM CET
Moon No Moon Rise 1:02 PM CET (11/26)
Length of Visible Light 8h 28m
Length of Day
6h 42m
Last Quarter, 44% of the Moon is Illuminated
Nov 26
Last Quarter
Dec 3
New
Dec 9
First Quarter
Dec 17
Full
Dec 25
Last Quarter

Hourly Weather History & Observations

Time (CET) Temp. Windchill Dew Point Humidity Pressure Visibility Wind Dir Wind Speed Gust Speed Precip Events Conditions
12:20 AM 19.4 °F 12.8 °F 15.8 °F 86% 30.42 in - SSE 4.6 mph - N/A   Clear
12:50 AM 19.4 °F - 15.8 °F 86% 30.42 in - Variable 2.3 mph - N/A   Clear
1:00 AM 19 °F - 15 °F 80%  in 47 mi South 2.2 mph - -   Partly Cloudy
1:20 AM 15.8 °F - 12.2 °F 86% 30.42 in - Variable 2.3 mph - N/A   Clear
1:50 AM 15.8 °F - 14.0 °F 93% 30.39 in - Calm Calm - N/A   Clear
2:20 AM 15.8 °F - 14.0 °F 93% 30.39 in - Variable 1.2 mph - N/A   Clear
2:50 AM 15.8 °F - 12.2 °F 86% 30.39 in - Calm Calm - N/A   Clear
3:20 AM 15.8 °F - 14.0 °F 93% 30.36 in - Variable 2.3 mph - N/A   Clear
3:50 AM 15.8 °F - 14.0 °F 93% 30.36 in - Calm Calm - N/A   Clear
4:20 AM 17.6 °F - 15.8 °F 93% 30.36 in - Calm Calm - N/A   Clear
4:50 AM 17.6 °F - 14.0 °F 86% 30.36 in - Calm Calm - N/A   Clear
5:20 AM 15.8 °F - 12.2 °F 86% 30.36 in - Calm Calm - N/A   Clear
5:50 AM 15.8 °F - 14.0 °F 93% 30.33 in - Variable 1.2 mph - N/A   Clear
6:20 AM 15.8 °F - 14.0 °F 93% 30.33 in - Calm Calm - N/A   Clear
6:50 AM 19.4 °F 14.3 °F 17.6 °F 93% 30.33 in - South 3.5 mph - N/A   Clear
7:00 AM 16 °F - 14 °F 90%  in 37 mi SSE 2.2 mph - -   Partly Cloudy
7:20 AM 17.6 °F - 15.8 °F 93% 30.33 in - Variable 2.3 mph - N/A   Clear
7:50 AM 19.4 °F - 17.6 °F 93% 30.33 in - Variable 1.2 mph - N/A   Clear
8:20 AM 17.6 °F 10.7 °F 15.8 °F 93% 30.30 in - South 4.6 mph - N/A   Clear
8:50 AM 17.6 °F - 15.8 °F 93% 30.30 in - Calm Calm - N/A   Clear
9:20 AM 17.6 °F 12.3 °F 15.8 °F 93% 30.30 in - SW 3.5 mph - N/A   Clear
9:50 AM 17.6 °F - 15.8 °F 93% 30.30 in - SW 2.3 mph - N/A   Clear
10:20 AM 19.4 °F - 17.6 °F 93% 30.27 in - Calm Calm - N/A   Clear
10:50 AM 19.4 °F 14.3 °F 17.6 °F 93% 30.27 in - SSW 3.5 mph - N/A   Clear
11:20 AM 19.4 °F - 17.6 °F 93% 30.27 in - Calm Calm - N/A   Clear
11:50 AM 21.2 °F - 19.4 °F 93% 30.24 in - Variable 1.2 mph - N/A   Clear
12:20 PM 21.2 °F - 19.4 °F 93% 30.21 in - Variable 1.2 mph - N/A   Clear
12:50 PM 23.0 °F 18.4 °F 21.2 °F 93% 30.21 in - NE 3.5 mph - N/A   Clear
1:00 PM 26 °F - 24 °F 89%  in 12 mi South 4.5 mph - -   Partly Cloudy
1:20 PM 23.0 °F - 21.2 °F 93% 30.21 in - Variable 2.3 mph - N/A   Clear
1:50 PM 23.0 °F - 21.2 °F 93% 30.18 in - Calm Calm - N/A   Clear
2:20 PM 24.8 °F - 23.0 °F 93% 30.18 in - Calm Calm - N/A   Clear
2:50 PM 26.6 °F - 24.8 °F 93% 30.15 in - Variable 1.2 mph - N/A   Clear
3:20 PM 26.6 °F 20.0 °F 24.8 °F 93% 30.12 in 6.2 mi SSW 5.8 mph - N/A Rain Light Freezing Rain
3:50 PM 26.6 °F - 24.8 °F 93% 30.09 in - Variable 1.2 mph - N/A   Clear
4:20 PM 28.4 °F 20.4 °F 24.8 °F 86% 30.09 in - South 8.1 mph - N/A   Clear
4:50 PM 30.2 °F 21.3 °F 26.6 °F 86% 30.06 in - South 10.4 mph - N/A   Clear
5:50 PM 30.2 °F 21.9 °F 26.6 °F 86% 30.04 in - South 9.2 mph - N/A   Clear
6:20 PM 30.2 °F 22.6 °F 26.6 °F 86% 30.04 in - SSE 8.1 mph - N/A   Clear
6:50 PM 32.0 °F 24.2 °F 26.6 °F 80% 30.04 in - South 9.2 mph - N/A   Clear
7:00 PM 31 °F - 27 °F 78%  in 44 mi South 8.9 mph - -   Partly Cloudy
7:20 PM 32.0 °F 23.0 °F 26.6 °F 80% 30.04 in - South 11.5 mph - N/A   Clear
7:50 PM 32.0 °F 22.5 °F 26.6 °F 80% 30.01 in - South 12.7 mph - N/A   Clear
8:20 PM 32.0 °F 21.6 °F 28.4 °F 87% 30.01 in - South 15.0 mph - N/A   Clear
8:50 PM 32.0 °F 23.0 °F 28.4 °F 87% 29.98 in - SSW 11.5 mph - N/A   Clear
9:20 PM 32.0 °F 23.6 °F 28.4 °F 87% 29.98 in - SSW 10.4 mph - N/A   Clear
9:50 PM 33.8 °F 28.6 °F 28.4 °F 81% 29.98 in - SSW 5.8 mph - N/A   Clear
10:20 PM 33.8 °F 30.8 °F 30.2 °F 87% 29.95 in - SSE 3.5 mph - N/A   Clear
10:50 PM 33.8 °F 29.6 °F 28.4 °F 81% 29.95 in - SE 4.6 mph - N/A   Clear
11:20 PM 32.0 °F - 28.4 °F 87% 29.95 in - Variable 1.2 mph - N/A   Clear
11:50 PM 32.0 °F - 28.4 °F 87% 29.95 in - Variable 1.2 mph - N/A   Clear